Change the Weather History Date:

Sunday, October 21, 2012

  Actual Average Record
Temperature  
Mean Temperature 60 °F -  
Max Temperature 77 °F 59 °F 85 °F (1978)
Min Temperature 43 °F 32 °F 20 °F (1967)
Degree Days  
Heating Degree Days 5    
Growing Degree Days 10 (Base 50)    
Moisture  
Dew Point 46 °F    
Average Humidity 69    
Maximum Humidity 90    
Minimum Humidity 37    
Precipitation  
Precipitation 0.00 in - - ()
Sea Level Pressure  
Sea Level Pressure 29.76 in    
Wind  
Wind Speed 7 mph (SSE)    
Max Wind Speed 15 mph    
Max Gust Speed 22 mph    
Visibility 10 miles    
Events      
Averages and records for this station are not official NWS values.
T = Trace of Precipitation, MM = Missing Value Source: NWS Daily Summary

Daily Weather History Graph

Daily Weather History Graph

Search for Another Location

Airport or City:

Trip Planner

Search our weather history database for the weather conditions in past years. The results will help you decide how hot, cold, wet, or windy it might be!

Date:

Astronomy

Oct. 21, 2012 Rise Set
Actual Time 7:43 AM CDT 6:29 PM CDT
Civil Twilight 7:14 AM CDT 6:58 PM CDT
Nautical Twilight 6:41 AM CDT 7:31 PM CDT
Astronomical Twilight 6:08 AM CDT 8:03 PM CDT
Moon 2:07 PM CDT (10/21) No Moon Set
Length of Visible Light 11h 43m
Length of Day
10h 46m
Waxing Crescent, 45% of the Moon is Illuminated
Oct 21
Waxing Crescent
Oct 21
First Quarter
Oct 29
Full
Nov 6
Last Quarter
Nov 13
New

Hourly Weather History & Observations

Time (CDT) Temp. Windchill Dew Point Humidity Pressure Visibility Wind Dir Wind Speed Gust Speed Precip Events Conditions
12:15 AM 45.0 °F 43.5 °F 41.2 °F 87% 29.76 in 10.0 mi South 3.5 mph - N/A   Clear
12:35 AM 45.5 °F 43.2 °F 41.2 °F 85% 29.76 in 10.0 mi SE 4.6 mph - N/A   Clear
12:55 AM 45.5 °F 43.2 °F 41.2 °F 85% 29.76 in 10.0 mi SE 4.6 mph - N/A   Clear
1:15 AM 45.1 °F 42.0 °F 41.0 °F 85% 29.76 in 10.0 mi SE 5.8 mph - N/A   Clear
1:35 AM 44.2 °F 41.0 °F 40.5 °F 87% 29.76 in 10.0 mi SE 5.8 mph - N/A   Clear
1:55 AM 44.6 °F 41.4 °F 40.6 °F 86% 29.75 in 10.0 mi SSE 5.8 mph - N/A   Clear
2:15 AM 45.0 °F 40.1 °F 41.0 °F 86% 29.75 in 10.0 mi SE 9.2 mph - N/A   Clear
2:35 AM 45.1 °F 40.8 °F 40.8 °F 85% 29.75 in 10.0 mi SSE 8.1 mph - N/A   Clear
2:55 AM 45.3 °F 41.6 °F 41.0 °F 85% 29.75 in 10.0 mi SSE 6.9 mph - N/A   Clear
3:15 AM 46.0 °F 41.4 °F 41.4 °F 84% 29.74 in 10.0 mi SSE 9.2 mph - N/A   Clear
3:35 AM 46.0 °F 41.9 °F 41.4 °F 84% 29.73 in 10.0 mi South 8.1 mph - N/A   Clear
3:55 AM 46.4 °F 42.9 °F 41.4 °F 83% 29.72 in 10.0 mi SSE 6.9 mph - N/A   Clear
4:15 AM 46.4 °F 41.9 °F 41.4 °F 83% 29.72 in 10.0 mi SSE 9.2 mph - N/A   Clear
4:35 AM 46.4 °F 42.9 °F 41.2 °F 82% 29.72 in 10.0 mi SSE 6.9 mph - N/A   Clear
4:55 AM 45.9 °F 42.9 °F 41.0 °F 83% 29.72 in 10.0 mi SE 5.8 mph - N/A   Clear
5:15 AM 45.1 °F 42.8 °F 40.6 °F 84% 29.72 in 10.0 mi SSE 4.6 mph - N/A   Clear
5:35 AM 43.7 °F - 40.1 °F 87% 29.72 in 10.0 mi Calm Calm - N/A   Clear
5:55 AM 43.7 °F 39.7 °F 40.3 °F 88% 29.72 in 10.0 mi SE 6.9 mph - N/A   Clear
6:15 AM 43.7 °F 42.1 °F 40.5 °F 88% 29.72 in 10.0 mi SSE 3.5 mph - N/A   Clear
6:35 AM 44.1 °F 40.8 °F 41.0 °F 89% 29.72 in 10.0 mi SSE 5.8 mph - N/A   Clear
6:55 AM 44.1 °F 40.8 °F 40.8 °F 88% 29.73 in 10.0 mi SSE 5.8 mph - N/A   Clear
7:15 AM 45.1 °F 42.0 °F 41.4 °F 87% 29.73 in 10.0 mi SSE 5.8 mph - N/A   Clear
7:35 AM 44.8 °F 41.6 °F 41.4 °F 88% 29.74 in 10.0 mi SSE 5.8 mph - N/A   Clear
7:55 AM 44.6 °F 43.1 °F 41.4 °F 88% 29.74 in 10.0 mi SE 3.5 mph - N/A   Clear
8:15 AM 44.8 °F 40.4 °F 41.9 °F 90% 29.74 in 10.0 mi SSE 8.1 mph - N/A   Clear
8:35 AM 45.7 °F 41.0 °F 42.6 °F 89% 29.74 in 10.0 mi South 9.2 mph - N/A   Clear
8:55 AM 47.3 °F - 43.5 °F 87% 29.75 in 10.0 mi South 9.2 mph - N/A   Clear
9:15 AM 49.6 °F - 45.0 °F 84% 29.75 in 10.0 mi South 10.4 mph - N/A   Clear
9:35 AM 50.4 °F - 45.3 °F 83% 29.74 in 10.0 mi South 8.1 mph - N/A   Clear
9:55 AM 50.4 °F - 45.7 °F 84% 29.74 in 10.0 mi South 9.2 mph - N/A   Clear
10:15 AM 53.2 °F - 48.0 °F 82% 29.75 in 10.0 mi South 6.9 mph - N/A   Clear
10:35 AM 57.0 °F - 49.5 °F 76% 29.75 in 10.0 mi SSW 9.2 mph - N/A   Clear
10:55 AM 59.9 °F - 50.2 °F 70% 29.75 in 10.0 mi South 10.4 mph - N/A   Clear
11:15 AM 62.8 °F - 51.1 °F 66% 29.75 in 10.0 mi South 12.7 mph - N/A   Clear
11:35 AM 64.4 °F - 50.9 °F 62% 29.75 in 10.0 mi South 12.7 mph - N/A   Clear
11:55 AM 66.4 °F - 51.1 °F 58% 29.75 in 10.0 mi South 10.4 mph - N/A   Clear
12:15 PM 68.2 °F - 50.5 °F 53% 29.75 in 10.0 mi SW 9.2 mph - N/A   Clear
12:35 PM 69.6 °F - 50.4 °F 50% 29.75 in 10.0 mi SSW 11.5 mph - N/A   Clear
12:55 PM 71.2 °F - 50.2 °F 47% 29.75 in 10.0 mi SSW 10.4 mph - N/A   Clear
1:15 PM 72.5 °F - 49.8 °F 45% 29.76 in 10.0 mi SSW 11.5 mph - N/A   Clear
1:35 PM 73.8 °F - 49.6 °F 43% 29.75 in 10.0 mi WSW 9.2 mph - N/A   Clear
1:55 PM 74.7 °F - 49.5 °F 41% 29.75 in 10.0 mi South 5.8 mph - N/A   Clear
2:15 PM 75.9 °F - 48.7 °F 38% 29.74 in 10.0 mi SSW 8.1 mph - N/A   Clear
2:35 PM 77.0 °F - 49.1 °F 37% 29.74 in 10.0 mi West 5.8 mph - N/A   Clear
2:55 PM 77.0 °F - 50.0 °F 39% 29.74 in 10.0 mi WSW 6.9 mph - N/A   Clear
3:15 PM 77.0 °F - 49.6 °F 38% 29.74 in 10.0 mi WSW 4.6 mph - N/A   Clear
3:35 PM 77.0 °F - 49.5 °F 38% 29.74 in 10.0 mi West 8.1 mph - N/A   Clear
3:55 PM 77.0 °F - 49.6 °F 38% 29.75 in 10.0 mi West 8.1 mph - N/A   Clear
4:15 PM 76.6 °F - 50.2 °F 39% 29.75 in 10.0 mi West 5.8 mph - N/A   Clear
4:35 PM 75.7 °F - 49.3 °F 39% 29.75 in 10.0 mi WNW 5.8 mph - N/A   Clear
4:55 PM 75.4 °F - 49.5 °F 40% 29.75 in 10.0 mi WNW 4.6 mph - N/A   Clear
5:15 PM 75.2 °F - 49.3 °F 40% 29.75 in 10.0 mi NNW 6.9 mph - N/A   Clear
5:35 PM 73.6 °F - 48.9 °F 42% 29.75 in 10.0 mi North 8.1 mph - N/A   Clear
5:55 PM 70.7 °F - 49.1 °F 46% 29.76 in 10.0 mi North 5.8 mph - N/A   Clear
6:15 PM 69.4 °F - 48.4 °F 47% 29.77 in 10.0 mi North 5.8 mph - N/A   Clear
6:35 PM 67.3 °F - 48.2 °F 50% 29.78 in 10.0 mi North 5.8 mph - N/A   Clear
6:55 PM 65.5 °F - 48.0 °F 53% 29.78 in 10.0 mi NNE 5.8 mph - N/A   Clear
7:15 PM 63.1 °F - 48.0 °F 58% 29.79 in 10.0 mi NNE 5.8 mph - N/A   Clear
7:35 PM 62.1 °F - 47.7 °F 59% 29.80 in 10.0 mi NNE 4.6 mph - N/A   Clear
7:55 PM 60.6 °F - 47.7 °F 62% 29.81 in 10.0 mi NNE 4.6 mph - N/A   Clear
8:15 PM 59.5 °F - 47.7 °F 65% 29.82 in 10.0 mi NNE 4.6 mph - N/A   Clear
8:35 PM 59.7 °F - 47.3 °F 63% 29.82 in 10.0 mi North 8.1 mph - N/A   Mostly Cloudy
8:55 PM 60.3 °F - 47.5 °F 63% 29.82 in 10.0 mi NNE 15.0 mph - N/A   Mostly Cloudy
9:15 PM 58.8 °F - 47.5 °F 66% 29.83 in 10.0 mi North 13.8 mph - N/A   Mostly Cloudy
9:35 PM 56.7 °F - 47.8 °F 72% 29.84 in 10.0 mi NNE 15.0 mph 21.9 mph N/A   Scattered Clouds
9:55 PM 55.0 °F - 47.7 °F 76% 29.84 in 10.0 mi North 15.0 mph - N/A   Scattered Clouds
10:15 PM 54.0 °F - 47.7 °F 79% 29.85 in 10.0 mi NNE 11.5 mph 18.4 mph N/A   Mostly Cloudy
10:35 PM 52.9 °F - 47.3 °F 81% 29.85 in 10.0 mi North 12.7 mph 20.7 mph N/A   Mostly Cloudy
10:55 PM 52.2 °F - 46.9 °F 82% 29.86 in 10.0 mi NNE 10.4 mph - N/A   Mostly Cloudy
11:15 PM 51.6 °F - 46.8 °F 83% 29.86 in 10.0 mi NE 11.5 mph 17.3 mph N/A   Scattered Clouds
11:35 PM 51.3 °F - 46.8 °F 85% 29.86 in 10.0 mi NNE 13.8 mph 18.4 mph N/A   Mostly Cloudy
11:55 PM 51.1 °F - 46.8 °F 85% 29.87 in 10.0 mi North 6.9 mph - N/A   Mostly Cloudy